Regional Weather Roundup
Issued by NWS

Home | Current Version | Previous Version | Text Only | Print | Product List | Glossary Off
Versions: 1 2 3 4 5 6 7 8 9 10 11 12 13 14 15 16 17 18 19 20 21 22 23 24 25 26 27 28 29 30 31 32 33 34 35 36 37 38 39 40 41 42 43 44 45 46 47 48 49 50

000
ASUS43 KMPX 201810
RWRMN
WEATHER ROUNDUP FOR MINNESOTA
NATIONAL WEATHER SERVICE TWIN CITIES/CHANHASSEN MN
1200 PM CST MON FEB 20 2017


NOTE: "FAIR" INDICATES FEW OR NO CLOUDS BELOW 12,000 FEET WITH NO
SIGNIFICANT WEATHER AND/OR OBSTRUCTIONS TO VISIBILITY. N/A MEANS
CURRENT SKY AND/OR WEATHER CONDITIONS ARE NOT AVAILABLE.

MNZ060>063-068>070-201900-
   Twin Cities Metro

CITY           SKY/WX    TMP DP  RH WIND       PRES   REMARKS
TWIN CITIES    RAIN      49  47  93 SE9       29.74F VSB 1
6HR MIN TEMP:  49; 6HR MAX TEMP:  51; 6HR PCP:  0.10;

ST PAUL        LGT RAIN  50  49  96 SE13      29.76F FOG
CRYSTAL        LGT RAIN  50  46  86 SE10      29.73F FOG
BLAINE         LGT RAIN  52  52 100 SE12      29.74F
LAKEVILLE      LGT RAIN  48  48 100 SE9       29.75F
EDEN PRAIRIE   RAIN      50  48  93 SE12      29.71F VSB 1
6HR MIN TEMP:  49; 6HR MAX TEMP:  51; 6HR PCP:  0.15;

SOUTH ST PAUL  LGT RAIN  49  48  97 SE8       29.76F
LAKE ELMO      DRIZZLE   52  50  93 SE8       29.76F
$$
MNZ001>005-007-008-013>017-022>024-027-028-201900-
   Northwest Minnesota

CITY           SKY/WX    TMP DP  RH WIND       PRES   REMARKS
BEMIDJI        RAIN      41  40  95 SE8       29.64S
HALLOCK        DRZL/FOG  36  36 100 NW9       29.58F VSB<1/4
ROSEAU         RAIN      41  36  81 S9        29.58F
WARROAD        RAIN      41  37  87 S9        29.61F
THIEF RVR FALL LGT RAIN  43  42  97 SE14      29.58F VSB 1/4
CROOKSTON      LGT RAIN  41  39  93 S5        29.60R VSB<1/4
FOSSTON        RAIN      45  45 100 CALM      29.59F VSB 1/4
DETROIT LAKES  RAIN      45  45 100 SE10      29.62S
MOORHEAD       CLOUDY    48  46  93 SW14      29.63R FOG
PARK RAPIDS    LGT RAIN  44  42  93 SE13      29.63F VSB 1/2
MAHNOMEN       LGT RAIN  47  47  99 S7        29.60S
$$
MNZ006-009>011-018-025>026-201900-
   North Central Minnesota

CITY           SKY/WX    TMP DP  RH WIND       PRES   REMARKS
BAUDETTE       LGT RAIN  40  39  97 SE9       29.63F FOG
FLAG ISLAND    RAIN      37  37 100 SE10      29.61F
INTL FALLS     LGT RAIN  45  39  79 SE8       29.68F
6HR MIN TEMP:  40; 6HR MAX TEMP:  46; 6HR PCP: TRACE;

WASKISH        RAIN      45  41  87 S6        29.64F
BIG FORK       LGT RAIN  45  41  87 S8        29.70F
LONGVILLE      RAIN      45  43  93 SE7       29.69F
GRAND RAPIDS   RAIN      44  41  89 SE10      29.72F FOG
CRANE LAKE     CLOUDY    46  39  76 S9        29.75F
ORR            DRIZZLE   46  37  71 SE9       29.68F
COOK           CLOUDY    46  39  76 SE13      29.72F
WALKER         LGT RAIN  42  41  97 E3        29.65F
$$
MNZ012-019>021-037-201900-
   Northeast Minnesota

CITY           SKY/WX    TMP DP  RH WIND       PRES   REMARKS
DULUTH         CLOUDY    42  37  82 SE15      29.77F
6HR MIN TEMP:  40; 6HR MAX TEMP:  43; 6HR PCP:  0.04;

ELY            CLOUDY    45  36  70 SE12G17   29.78F
HIBBING        CLOUDY    41  38  89 SE12      29.72F
EVELETH        CLOUDY    45  37  73 SE8       29.76F
DULUTH HARBOR  CLOUDY    37  34  87 NE16      29.82F
TWO HARBORS    RAIN      43  37  81 NE8       29.81F
SILVER BAY     CLOUDY    39  34  81 NE10G17   29.84F
GRAND MARAIS     N/A     41  33  73 NE9       29.92F
G MARAIS ARPRT LGT RAIN  37  28  70 E8        29.91F
$$
MNZ029>031-032-039>041-046>048-054>057-064-201900-
   West Central Minnesota

CITY           SKY/WX    TMP DP  RH WIND       PRES   REMARKS
FERGUS FALLS   LGT RAIN  48  48 100 S8        29.66R
WHEATON        CLOUDY    54  52  94 S10       29.65R FOG
MORRIS         CLOUDY    52  52 100 S13       29.61F FOG
ALEXANDRIA     LGT RAIN  50  49  96 SE12      29.65F FOG
ELBOW LAKE     CLOUDY    50  50 100 S12       29.63R FOG
WADENA         RAIN      46  46 100 SE8       29.64F
GLENWOOD       RAIN      50  48  93 SE10      29.66F
APPLETON       CLOUDY    54  52  94 CALM      29.62F FOG
BENSON         LGT RAIN  54  48  82 S9G21     29.64F
ORTONVILLE     CLOUDY    52  48  87 CALM      29.62F FOG
WILLMAR        RAIN      52  52 100 SE12      29.66F
$$
MNZ033>034-036-042>043-049>051-058-059-201900-
   Central Minnesota

CITY           SKY/WX    TMP DP  RH WIND       PRES   REMARKS
ST CLOUD       LGT RAIN  49  49 100 SE12      29.71F FOG
6HR MIN TEMP:  48; 6HR MAX TEMP:  50; 6HR PCP:  0.12;

SAUK CENTRE    RAIN      49  48  97 SE9       29.67F
PAYNESVILLE    RAIN      50  50 100 SE8       29.68F
AITKIN         MIX PCPN  48  45  87 SE9       29.70F
PINE RIVER     LGT RAIN  43  43 100 E10       29.71F
BRAINERD       LGT RAIN  47  45  93 SE10      29.70F FOG
STAPLES        DRIZZLE   46  45  93 SE9       29.66F
LONG PRAIRIE   LGT RAIN  46  46 100 E9        29.67F
LITTLE FALLS   LGT RAIN  46  45  93 SE12      29.69F
LITCHFIELD     RAIN      52  52 100 SE10      29.69F
BUFFALO        LGT RAIN  50  47  92 E7        29.71F
MAPLE LAKE     RAIN      49  48  97 SE5       29.72F
HUTCHINSON     LGT RAIN  51  50  98 SE9       29.70F
$$
MNZ037-044-045-052-053-201900-
   East Central Minnesota

CITY           SKY/WX    TMP DP  RH WIND       PRES   REMARKS
PRINCETON      LGT RAIN  52  48  87 SE8       29.73F
MORA           HVY RAIN  45  41  87 SE7       29.77F
CAMBRIDGE      RAIN      52  45  76 E5        29.73F
RUSH CITY      DRIZZLE   50  45  81 SE12      29.75F
MOOSE LAKE     LGT RAIN  41  36  81 CALM      29.75F
HINCKLEY       RAIN      48  46  93 SE6       29.77F
CLOQUET        CLOUDY    39  36  87 E9        29.76F
MCGREGOR       CLOUDY    43  41  93 SE9       29.73F
$$
MNZ071>073-080-081-089-090-097-098-201900-
   Southwest Minnesota

CITY           SKY/WX    TMP DP  RH WIND       PRES   REMARKS
MONTEVIDEO     DRIZZLE   54  54 100 S10       29.64F
GRANITE FALLS  LGT RAIN  55  54  95 SE14      29.67S
CANBY          CLOUDY    58  54  86 SW13G21   29.63S FOG
MARSHALL       CLOUDY    56  54  93 S14       29.64F
REDWOOD FALLS  LGT RAIN  53  51  93 S13       29.66F FOG
OLIVIA         RAIN      52  50  93 SE12      29.66F
PIPESTONE      LGT RAIN  55  52  88 S14       29.66S VSB 1
WINDOM         FOG       54  52  94 S12G17    29.69S VSB 1
WORTHINGTON    FOG       51  51 100 S10       29.69S VSB 1/4
JACKSON        LGT RAIN  52  52 100 S13G22    29.71S
TRACY          CLOUDY    54  54  97 S10G18    29.65S FOG
SLAYTON        CLOUDY    54  54 100 S15       29.67F FOG
$$
MNZ065>067-074>077-082>085-091>093-201900-
   South Central Minnesota

CITY           SKY/WX    TMP DP  RH WIND       PRES   REMARKS
MANKATO        LGT RAIN  52  51  97 S15       29.71F FOG
NEW ULM        DRIZZLE   52  52 100 S14       29.68F
ST JAMES       DRIZZLE   52  52 100 SE14      29.70F
FAIRMONT       LGT RAIN  53  52  96 S18       29.71F FOG
GLENCOE        LGT RAIN  51  51 100 SE9       29.69F
FARIBAULT      LGT RAIN  52  50  93 SE12G22   29.75F
OWATONNA       LGT RAIN  52  48  87 SE16G23   29.75F
WASECA         LGT RAIN  52  50  93 SE14G22   29.75F
ALBERT LEA     RAIN      52  50  93 S13G22    29.76F
$$
MNZ078>079-086>088-094>096-201900-
   Southeast Minnesota

CITY           SKY/WX    TMP DP  RH WIND       PRES   REMARKS
ROCHESTER      RAIN      48  48 100 SE16      29.79F FOG
6HR MIN TEMP:  46; 6HR MAX TEMP:  49; 6HR PCP:  0.28;

RED WING       LGT RAIN  50  46  87 SE9       29.77F
DODGE CENTER   LGT RAIN  48  46  93 SE18      29.78F
WINONA         RAIN      48  46  93 SE14      29.83F
AUSTIN         RAIN      50  48  93 S10       29.78F
PRESTON        LGT RAIN  47  46  95 SE14      29.82F
$$
ABBREVIATIONS USED IN REMARKS
   TC - TEMPERATURES IN CELSIUS
  WCI - WIND CHILL INDEX
   HX - HEAT INDEX
  VSB - VISIBILITY
$$



USA.gov is the U.S. government's official web portal to all federal, state and local government web resources and services.